Regional Weather Roundup
Issued by NWS Midland/Odessa, TX

Skip options and go directly to product.
Home | Oldest Version | Previous Version | Current Version | All | Text Only | Save Text | Print | Product List | Glossary Off

Skip product version selection by date and time.   

748
ASUS44 KMAF 292110
RWRMAF
MIDLAND AREA WEATHER ROUNDUP
NATIONAL WEATHER SERVICE MIDLAND TX
400 PM CDT MON AUG 29 2016

...IN SOUTHWEST TEXAS AND SOUTHEAST NEW MEXICO...

CITY           SKY/WX    TMP DP  RH WIND       PRES   REMARKS
ALPINE         CLOUDY    76  60  58 E8        30.22F
ANDREWS        LGT RAIN  66  66 100 S5        30.15F
ARTESIA        MOSUNNY   82  61  47 NE10      30.14F
BIG SPRING     MOSUNNY   86  62  44 NE15      30.09F
CARLSBAD       MOSUNNY   84  59  42 NW8       30.11F
DRYDEN           N/A     78  70  76 CALM      30.02F
FORT STOCKTON  PTSUNNY   81  63  54 NE5       30.09F
GUAD PASS      MOSUNNY   73  56  54 NE20      30.23F
HOBBS          PTSUNNY   75  66  73 NE16      30.17F
MARFA          LGT RAIN N/A N/A N/A NE8       30.19F
MIDLAND AIRPK  CLOUDY    78  66  66 W9        30.11F
MIDLAND INTL   LGT RAIN  72  67  84 NW10      30.10F
ODESSA         RAIN      69  66  90 N12       30.12F FOG
PECOS          SUNNY     82  60  48 CALM      30.08F
PRESIDIO       NOT AVBL
SEMINOLE       RAIN      68  66  94 N7        30.18S
SNYDER           N/A     85  65  51 E12G20    30.08F
WINK           MOSUNNY   84  62  47 NE7       30.08F
$$
...OTHER STATIONS IN TEXAS...

CITY           SKY/WX    TMP DP  RH WIND       PRES   REMARKS
ABILENE        SUNNY     88  64  44 E14       30.05F
AMARILLO       LGT RAIN  71  65  81 NE10      30.23F
AUSTIN         PTSUNNY   89  72  56 NE14G24   29.93F
BROWNSVILLE    PTSUNNY   91  74  57 NE16G28   29.84F HX 100
CORPUS CHRISTI PTSUNNY   83  78  85 E7        29.88F
DALLAS FTW     CLOUDY    80  72  76 W8        29.99F
DEL RIO        PTSUNNY   75  73  93 W6        29.97F
EL PASO        MOSUNNY   84  58  40 E8        30.10F
HOUSTON INT    CLOUDY    78  73  84 E3        29.94F
LUBBOCK        RAIN      70  68  93 N10       30.16F FOG
SAN ANGELO     MOSUNNY   89  65  44 E14G25    30.02F
SAN ANTONIO    MOSUNNY   86  70  58 NE12G21   29.94F
WACO           MOSUNNY   92  72  51 E13       29.95F
WICHITA FALLS  NOT AVBL
$$
...OTHER LOCATIONS IN NEW MEXICO...

CITY           SKY/WX    TMP DP  RH WIND       PRES   REMARKS
ALAMAGORDO     SUNNY     84  54  34 S9G22     30.14F
ALBUQUERQUE    MOSUNNY   80  47  31 E16       30.22F
CANNON AFB     CLOUDY    71  57  60 NE13      30.24F
CLOVIS         CLOUDY    72  57  60 NE9       30.24F
HOLLOMAN AFB   PTSUNNY   85  55  36 SE9       30.11F
ROSWELL        MOSUNNY   81  57  43 E8        30.16F
RUIDOSO          N/A     61  54  77 SW9       30.37S
SANTA FE       CLOUDY    73  45  36 S9        30.29F
TRUTH OR CONSE MOSUNNY   83  43  24 VRB5      30.16F
TUCUMCARI      CLOUDY    77  57  50 NE9       30.22F
$$

USA.gov is the U.S. government's official web portal to all federal, state and local government web resources and services.